Date String (YYYY-MM-DD hh:mm:ss) UTC,Instrument flags,absolute air pressure of the measurement (hPa),sample flow rate (lpm),inlet stack bypass flow (lpm),air temperature of the measurement (°C),ambient temperature measured by the external sensor (°C),aerosol sample conditioner tube jacket temperature (°C),OPC LED temperature (°C),internal box temperature (°C),relative humidity of the measurement (%),span deviation,mass concentration of particles derived from Lorenz-Mie calculation of OPC scattering (μg/m³),mass concentration of particles derived from Lorenz-Mie calculation of OPC scattering (μg/m³),mass concentration of particles derived from Lorenz-Mie calculation of OPC scattering (μg/m³)
DateTimeUTC,F1_M11,P_M11,Q1_M11,Q2_M11,T1_M11,T2_M11,T3_M11,T4_M11,T5_M11,U1_M11,ZSPAN_M11,X0_M11,X2_M11,X1_M11
2023-12-28 14:00:00,SystemResetWarning,0832.3,5.00,000.00,018.6,017.5,000.0,027.1,020.0,8.4,0000.0,0000.81,0000.54,0000.45
2023-12-28 14:01:00,SystemResetWarning,0832.3,5.00,000.00,018.7,017.6,000.0,027.1,020.1,8.4,0000.0,0000.79,0000.52,0000.44
2023-12-28 14:02:00,SystemResetWarning,0832.4,5.00,000.00,018.8,018.1,000.0,027.1,020.5,8.4,0000.0,0000.78,0000.51,0000.43
2023-12-28 14:03:00,SystemResetWarning,0832.4,5.00,000.00,018.9,018.8,000.0,027.1,020.8,8.4,0000.0,0000.80,0000.52,0000.43
2023-12-28 14:04:00,SystemResetWarning,0832.4,5.00,000.00,019.0,018.8,000.0,027.1,020.5,8.3,0000.0,0000.85,0000.53,0000.44
2023-12-28 14:05:00,SystemResetWarning,0832.4,4.99,000.00,019.0,018.7,000.0,027.1,020.4,8.3,0000.0,0000.85,0000.53,0000.44
2023-12-28 14:06:00,SystemResetWarning,0832.4,5.00,000.00,018.9,018.6,000.0,027.1,020.3,8.4,0000.0,0000.89,0000.55,0000.46
2023-12-28 14:07:00,SystemResetWarning,0832.4,5.00,000.00,018.9,018.5,000.0,027.1,020.2,8.4,0000.0,0000.89,0000.55,0000.46
2023-12-28 14:08:00,SystemResetWarning,0832.5,5.00,000.00,018.9,018.4,000.0,027.1,020.2,8.5,0000.0,0000.89,0000.54,0000.46
2023-12-28 14:09:00,SystemResetWarning,0832.5,5.00,000.00,018.9,018.3,000.0,027.1,020.1,8.4,0000.0,0000.96,0000.55,0000.46
2023-12-28 14:10:00,SystemResetWarning,0832.5,5.00,000.00,018.9,018.2,000.0,027.1,020.1,8.4,0000.0,0000.87,0000.55,0000.45
2023-12-28 14:11:00,SystemResetWarning,0832.6,5.00,000.00,018.8,018.1,000.0,027.1,020.0,8.4,0000.0,0000.88,0000.56,0000.46
2023-12-28 14:12:00,SystemResetWarning,0832.5,5.00,000.00,018.8,018.0,000.0,027.1,020.0,8.4,0000.0,0000.93,0000.58,0000.47
2023-12-28 14:13:00,SystemResetWarning,0832.5,5.00,000.00,018.8,018.0,000.0,027.1,020.0,8.4,0000.0,0000.93,0000.59,0000.48
2023-12-28 14:14:00,SystemResetWarning,0832.5,5.00,000.00,018.8,017.9,000.0,027.1,020.0,8.3,0000.0,0000.90,0000.58,0000.48
2023-12-28 14:15:00,SystemResetWarning,0832.5,5.00,000.00,018.8,017.9,000.0,027.1,020.0,8.4,0000.0,0000.89,0000.58,0000.49
2023-12-28 14:16:00,SystemResetWarning,0832.5,5.00,000.00,018.8,017.8,000.0,027.1,020.0,8.4,0000.0,0000.89,0000.59,0000.49
2023-12-28 14:17:00,SystemResetWarning,0832.6,5.00,000.00,018.7,017.8,000.0,027.1,020.0,8.4,0000.0,0000.86,0000.58,0000.49
2023-12-28 14:18:00,SystemResetWarning,0832.6,5.00,000.00,018.7,017.8,000.0,027.1,020.0,8.3,0000.0,0000.89,0000.60,0000.51
2023-12-28 14:19:00,SystemResetWarning,0832.6,5.00,000.00,018.7,017.7,000.0,027.1,020.0,8.3,0000.0,0000.95,0000.62,0000.51
2023-12-28 14:20:00,SystemResetWarning,0832.7,5.00,000.00,018.7,017.7,000.0,027.1,020.0,8.3,0000.0,0000.90,0000.62,0000.52
2023-12-28 14:21:00,SystemResetWarning,0832.7,5.00,000.00,018.7,017.7,000.0,027.1,020.0,8.4,0000.0,0001.01,0000.62,0000.52
2023-12-28 14:22:00,SystemResetWarning,0832.7,5.00,000.00,018.7,017.7,000.0,027.1,020.0,8.3,0000.0,0001.02,0000.62,0000.51
2023-12-28 14:23:00,SystemResetWarning,0832.7,5.00,000.00,018.7,017.6,000.0,027.1,020.0,8.3,0000.0,0000.97,0000.60,0000.51
2023-12-28 14:24:00,SystemResetWarning,0832.7,5.00,000.00,018.7,017.6,000.0,027.1,020.0,8.4,0000.0,0001.11,0000.62,0000.51
2023-12-28 14:25:00,SystemResetWarning,0832.7,5.00,000.00,018.7,017.6,000.0,027.1,020.0,8.4,0000.0,0001.20,0000.65,0000.51
2023-12-28 14:26:00,SystemResetWarning,0832.7,5.00,000.00,018.7,017.6,000.0,027.1,020.0,8.3,0000.0,0001.23,0000.66,0000.51
2023-12-28 14:27:00,SystemResetWarning,0832.7,5.01,000.00,018.7,017.6,000.0,027.1,020.0,8.3,0000.0,0001.20,0000.63,0000.50
2023-12-28 14:28:00,SystemResetWarning,0832.9,5.00,000.00,018.7,017.6,000.0,027.1,020.0,8.3,0000.0,0001.19,0000.63,0000.49
2023-12-28 14:29:00,SystemResetWarning,0832.8,4.99,000.00,018.7,017.5,000.0,027.1,020.0,8.3,0000.0,0001.13,0000.60,0000.48
2023-12-28 14:30:00,SystemResetWarning,0832.8,4.99,000.00,018.7,017.5,000.0,027.1,020.0,8.4,0000.0,0001.07,0000.58,0000.48
2023-12-28 14:31:00,SystemResetWarning,0832.8,4.99,000.00,018.7,017.5,000.0,027.1,020.0,8.4,0000.0,0001.02,0000.57,0000.48
2023-12-28 14:32:00,SystemResetWarning,0832.8,5.00,000.00,018.7,017.5,000.0,027.1,020.0,8.5,0000.0,0000.92,0000.56,0000.48
2023-12-28 14:33:00,SystemResetWarning,0833.1,5.01,000.00,018.7,017.6,000.0,027.1,020.1,8.6,0000.0,0000.90,0000.57,0000.48
2023-12-28 14:34:00,SystemResetWarning,0833.1,5.02,000.00,018.8,018.3,000.0,027.1,020.6,8.7,0000.0,0000.96,0000.60,0000.49
2023-12-28 14:35:00,SystemResetWarning,0832.9,4.98,000.00,018.9,019.0,000.0,027.2,020.8,8.7,0000.0,0000.84,0000.59,0000.49
2023-12-28 14:36:00,SystemResetWarning,0833.0,4.99,000.00,019.0,019.0,000.0,027.2,020.7,8.6,0000.0,0000.73,0000.55,0000.48
2023-12-28 14:37:00,SystemResetWarning,0832.9,5.00,000.00,019.0,018.9,000.0,027.2,020.5,8.6,0000.0,0000.70,0000.54,0000.49
2023-12-28 14:38:00,SystemResetWarning,0833.0,5.00,000.00,019.0,018.8,000.0,027.2,020.4,8.6,0000.0,0000.73,0000.56,0000.50
2023-12-28 14:39:00,SystemResetWarning,0833.0,5.00,000.00,019.0,018.7,000.0,027.2,020.3,8.4,0000.0,0000.79,0000.58,0000.50
2023-12-28 14:40:00,SystemResetWarning,0833.2,5.00,000.00,019.0,018.6,000.0,027.2,020.3,8.3,0000.0,0000.81,0000.59,0000.50
2023-12-28 14:41:00,SystemResetWarning,0833.3,5.00,000.00,018.9,018.5,000.0,027.2,020.2,8.3,0000.0,0000.82,0000.59,0000.50
2023-12-28 14:42:00,SystemResetWarning,0833.0,5.00,000.00,018.9,018.4,000.0,027.2,020.2,8.3,0000.0,0000.92,0000.61,0000.50
2023-12-28 14:43:00,SystemResetWarning,0833.0,5.01,000.00,018.9,018.3,000.0,027.2,020.1,8.4,0000.0,0000.92,0000.61,0000.51
2023-12-28 14:44:00,SystemResetWarning,0833.1,5.00,000.00,018.9,018.2,000.0,027.2,020.0,8.4,0000.0,0000.90,0000.61,0000.51
2023-12-28 14:45:00,SystemResetWarning,0833.0,5.00,000.00,018.8,018.1,000.0,027.2,020.0,8.3,0000.0,0000.86,0000.59,0000.52
2023-12-28 14:46:00,SystemResetWarning,0833.2,5.00,000.00,018.8,018.1,000.0,027.2,020.0,8.3,0000.0,0000.86,0000.59,0000.52
2023-12-28 14:47:00,SystemResetWarning,0833.2,5.00,000.00,018.8,018.0,000.0,027.2,020.0,8.3,0000.0,0000.86,0000.59,0000.52
2023-12-28 14:48:00,SystemResetWarning,0833.2,5.00,000.00,018.8,017.9,000.0,027.2,020.0,8.3,0000.0,0000.86,0000.59,0000.51
2023-12-28 14:49:00,SystemResetWarning,0833.2,5.00,000.00,018.8,017.9,000.0,027.2,020.0,8.3,0000.0,0000.86,0000.58,0000.50
2023-12-28 14:50:00,SystemResetWarning,0833.2,5.00,000.00,018.8,017.8,000.0,027.2,020.0,8.3,0000.0,0000.85,0000.57,0000.50
2023-12-28 14:51:00,SystemResetWarning,0833.2,4.99,000.00,018.8,017.8,000.0,027.2,020.0,8.4,0000.0,0000.89,0000.59,0000.50
2023-12-28 14:52:00,SystemResetWarning,0833.2,4.99,000.00,018.8,017.8,000.0,027.2,020.0,8.4,0000.0,0000.96,0000.60,0000.49
2023-12-28 14:53:00,SystemResetWarning,0833.2,5.00,000.00,018.7,017.7,000.0,027.1,020.0,8.5,0000.0,0000.90,0000.61,0000.49
2023-12-28 14:54:00,SystemResetWarning,0833.2,5.01,000.00,018.7,017.7,000.0,027.1,020.0,8.5,0000.0,0000.93,0000.62,0000.49
2023-12-28 14:55:00,SystemResetWarning,0833.3,5.00,000.00,018.7,017.7,000.0,027.1,020.0,8.6,0000.0,0000.95,0000.62,0000.48
2023-12-28 14:56:00,SystemResetWarning,0833.3,5.00,000.00,018.7,017.7,000.0,027.1,020.0,8.6,0000.0,0001.00,0000.62,0000.47
2023-12-28 14:57:00,SystemResetWarning,0833.3,5.01,000.00,018.7,017.6,000.0,027.1,020.0,8.6,0000.0,0001.02,0000.63,0000.46
2023-12-28 14:58:00,SystemResetWarning,0833.3,5.00,000.00,018.7,017.6,000.0,027.1,020.0,8.6,0000.0,0001.05,0000.64,0000.47
2023-12-28 14:59:00,SystemResetWarning,0833.3,5.00,000.00,018.7,017.6,000.0,027.1,020.0,8.6,0000.0,0001.08,0000.65,0000.48
